Tracking 19720 objects as of 26-Jun-2019
HD Live streaming from Space Station
objects crossing your sky now

FENGYUN 1C DEB

Track FENGYUN 1C DEB now!
10-day predictions


NORAD ID: 30492
Int'l Code: 1999-025AHE
Perigee: 744.3 km
Apogee: 999.3 km
Inclination: 102.3 °
Period: 102.2 minutes
Semi major axis: 7242 km
RCS: 0.0164 m2 (small)
Launch date: May 10, 1999
Source: People's Republic of China (PRC)
Launch site: Taiyaun Space Center, China (TSC)

Note: This is SATELLITE DEBRIS
aabbcc
Your satellite tracking list
Your tracking list is empty




NASA's NSSDC Master Catalog

Two Line Element Set (TLE):
1 30492U 99025AHE 19176.33736229  .00001337  00000-0  71356-3 0  9991
2 30492 102.3409 324.2133 0176079 231.1781 158.8326 14.08452565633870
Source of the keplerian elements: AFSPC